#Datum;Uhrzeit;WR;Pac;DaySum;Status;WR;Pac;DaySum;Status;Pdc1;Udc;Temp;WR;Pac;DaySum;Status;Pdc1;Udc;Temp;WR;Pac;DaySum;Status;Pdc1;Udc;Temp;WR;Pac;DaySum;Status;Pdc1;Pdc2;Udc1;Udc2;Temp;WR;Pac;DaySum;Status;Pdc1;Pdc2;Udc1;Udc2;Temp;WR;Pac;DaySum;Status;Pdc1;Udc;Temp;WR;Pac;DaySum;Status;Pdc1;Udc;Temp;WR;Pac;DaySum;Status;Pdc1;Udc;Temp
16.01.20;23:55:00;1;473;15568;0;2;0;13398;0;0;0;0;3;0;8845;0;0;0;0;4;0;10696;0;0;0;0;5;0;29898;0;0;0;0;0;0;6;0;22593;0;0;0;0;0;0;7;0;21104;0;0;0;0;8;0;20790;0;0;0;0;9;0;11328;0;0;0;0
16.01.20;23:50:00;1;1068;15529;0;2;0;13398;0;0;0;0;3;0;8845;0;0;0;0;4;0;10696;0;0;0;0;5;0;29898;0;0;0;0;0;0;6;0;22593;0;0;0;0;0;0;7;0;21104;0;0;0;0;8;0;20790;0;0;0;0;9;0;11328;0;0;0;0
16.01.20;23:45:00;1;548;15464;0;2;0;13398;0;0;0;0;3;0;8845;0;0;0;0;4;0;10696;0;0;0;0;5;0;29898;0;0;0;0;0;0;6;0;22593;0;0;0;0;0;0;7;0;21104;0;0;0;0;8;0;20790;0;0;0;0;9;0;11328;0;0;0;0
16.01.20;23:40:00;1;672;15417;0;2;0;13398;0;0;0;0;3;0;8845;0;0;0;0;4;0;10696;0;0;0;0;5;0;29898;0;0;0;0;0;0;6;0;22593;0;0;0;0;0;0;7;0;21104;0;0;0;0;8;0;20790;0;0;0;0;9;0;11328;0;0;0;0
16.01.20;23:35:00;1;3049;15362;0;2;0;13398;0;0;0;0;3;0;8845;0;0;0;0;4;0;10696;0;0;0;0;5;0;29898;0;0;0;0;0;0;6;0;22593;0;0;0;0;0;0;7;0;21104;0;0;0;0;8;0;20790;0;0;0;0;9;0;11328;0;0;0;0
16.01.20;23:30:00;1;776;15058;0;2;0;13398;0;0;0;0;3;0;8845;0;0;0;0;4;0;10696;0;0;0;0;5;0;29898;0;0;0;0;0;0;6;0;22593;0;0;0;0;0;0;7;0;21104;0;0;0;0;8;0;20790;0;0;0;0;9;0;11328;0;0;0;0
16.01.20;23:25:00;1;761;14993;0;2;0;13398;0;0;0;0;3;0;8845;0;0;0;0;4;0;10696;0;0;0;0;5;0;29898;0;0;0;0;0;0;6;0;22593;0;0;0;0;0;0;7;0;21104;0;0;0;0;8;0;20790;0;0;0;0;9;0;11328;0;0;0;0
16.01.20;23:20:00;1;773;14930;0;2;0;13398;0;0;0;0;3;0;8845;0;0;0;0;4;0;10696;0;0;0;0;5;0;29898;0;0;0;0;0;0;6;0;22593;0;0;0;0;0;0;7;0;21104;0;0;0;0;8;0;20790;0;0;0;0;9;0;11328;0;0;0;0
16.01.20;23:15:00;1;720;14866;0;2;0;13398;0;0;0;0;3;0;8845;0;0;0;0;4;0;10696;0;0;0;0;5;0;29898;0;0;0;0;0;0;6;0;22593;0;0;0;0;0;0;7;0;21104;0;0;0;0;8;0;20790;0;0;0;0;9;0;11328;0;0;0;0
16.01.20;23:10:00;1;639;14782;0;2;0;13398;0;0;0;0;3;0;8845;0;0;0;0;4;0;10696;0;0;0;0;5;0;29898;0;0;0;0;0;0;6;0;22593;0;0;0;0;0;0;7;0;21104;0;0;0;0;8;0;20790;0;0;0;0;9;0;11328;0;0;0;0
16.01.20;23:05:00;1;656;14728;0;2;0;13398;0;0;0;0;3;0;8845;0;0;0;0;4;0;10696;0;0;0;0;5;0;29898;0;0;0;0;0;0;6;0;22593;0;0;0;0;0;0;7;0;21104;0;0;0;0;8;0;20790;0;0;0;0;9;0;11328;0;0;0;0
16.01.20;23:00:00;1;667;14673;0;2;0;13398;0;0;0;0;3;0;8845;0;0;0;0;4;0;10696;0;0;0;0;5;0;29898;0;0;0;0;0;0;6;0;22593;0;0;0;0;0;0;7;0;21104;0;0;0;0;8;0;20790;0;0;0;0;9;0;11328;0;0;0;0
16.01.20;22:55:00;1;680;14592;0;2;0;13398;0;0;0;0;3;0;8845;0;0;0;0;4;0;10696;0;0;0;0;5;0;29898;2;0;0;0;0;0;6;0;22593;2;0;0;0;0;0;7;0;21104;0;0;0;0;8;0;20790;0;0;0;0;9;0;11328;0;0;0;0
16.01.20;22:50:00;1;683;14535;0;2;0;13398;0;0;0;0;3;0;8845;0;0;0;0;4;0;10696;0;0;0;0;5;0;29898;2;0;0;0;0;0;6;0;22593;2;0;0;0;0;0;7;0;21104;0;0;0;0;8;0;20790;0;0;0;0;9;0;11328;0;0;0;0
16.01.20;22:45:00;1;682;14478;0;2;0;13398;0;0;0;0;3;0;8845;0;0;0;0;4;0;10696;0;0;0;0;5;0;29898;2;0;0;0;0;0;6;0;22593;2;0;0;0;0;0;7;0;21104;0;0;0;0;8;0;20790;0;0;0;0;9;0;11328;0;0;0;0
16.01.20;22:40:00;1;696;14421;0;2;0;13398;0;0;0;0;3;0;8845;0;0;0;0;4;0;10696;0;0;0;0;5;0;29898;2;0;0;0;0;0;6;0;22593;2;0;0;0;0;0;7;0;21104;0;0;0;0;8;0;20790;0;0;0;0;9;0;11328;0;0;0;0
16.01.20;22:35:00;1;702;14337;0;2;0;13398;0;0;0;0;3;0;8845;0;0;0;0;4;0;10696;0;0;0;0;5;0;29898;2;0;0;0;0;0;6;0;22593;2;0;0;0;0;0;7;0;21104;0;0;0;0;8;0;20790;0;0;0;0;9;0;11328;0;0;0;0
16.01.20;22:30:00;1;1226;14279;0;2;0;13398;0;0;0;0;3;0;8845;0;0;0;0;4;0;10696;0;0;0;0;5;0;29898;2;0;0;0;0;0;6;0;22593;2;0;0;0;0;0;7;0;21104;0;0;0;0;8;0;20790;0;0;0;0;9;0;11328;0;0;0;0
16.01.20;22:25:00;1;1598;14175;0;2;0;13398;0;0;0;0;3;0;8845;0;0;0;0;4;0;10696;0;0;0;0;5;0;29898;2;0;0;0;0;0;6;0;22593;2;0;0;0;0;0;7;0;21104;0;0;0;0;8;0;20790;0;0;0;0;9;0;11328;0;0;0;0
16.01.20;22:20:00;1;1356;14051;0;2;0;13398;0;0;0;0;3;0;8845;0;0;0;0;4;0;10696;0;0;0;0;5;0;29898;2;0;0;0;0;0;6;0;22593;2;0;0;0;0;0;7;0;21104;0;0;0;0;8;0;20790;0;0;0;0;9;0;11328;0;0;0;0
16.01.20;22:15:00;1;1344;13938;0;2;0;13398;0;0;0;0;3;0;8845;0;0;0;0;4;0;10696;0;0;0;0;5;0;29898;2;0;0;0;0;0;6;0;22593;2;0;0;0;0;0;7;0;21104;0;0;0;0;8;0;20790;0;0;0;0;9;0;11328;0;0;0;0
16.01.20;22:10:00;1;822;13831;0;2;0;13398;0;0;0;0;3;0;8845;0;0;0;0;4;0;10696;0;0;0;0;5;0;29898;2;0;0;0;0;0;6;0;22593;2;0;0;0;0;0;7;0;21104;0;0;0;0;8;0;20790;0;0;0;0;9;0;11328;0;0;0;0
16.01.20;22:05:00;1;1382;13735;0;2;0;13398;0;0;0;0;3;0;8845;0;0;0;0;4;0;10696;0;0;0;0;5;0;29898;2;0;0;0;0;0;6;0;22593;2;0;0;0;0;0;7;0;21104;0;0;0;0;8;0;20790;0;0;0;0;9;0;11328;0;0;0;0
16.01.20;22:00:00;1;3003;13584;0;2;0;13398;0;0;0;0;3;0;8845;0;0;0;0;4;0;10696;0;0;0;0;5;0;29898;2;0;0;0;0;0;6;0;22593;2;0;0;0;0;0;7;0;21104;0;0;0;0;8;0;20790;0;0;0;0;9;0;11328;0;0;0;0
16.01.20;21:55:00;1;2597;13333;0;2;0;13398;0;0;0;0;3;0;8845;0;0;0;0;4;0;10696;0;0;0;0;5;0;29898;2;0;0;0;0;0;6;0;22593;2;0;0;0;0;0;7;0;21104;0;0;0;0;8;0;20790;0;0;0;0;9;0;11328;0;0;0;0
16.01.20;21:50:00;1;1785;13122;0;2;0;13398;0;0;0;0;3;0;8845;0;0;0;0;4;0;10696;0;0;0;0;5;0;29898;2;0;0;0;0;0;6;0;22593;2;0;0;0;0;0;7;0;21104;0;0;0;0;8;0;20790;0;0;0;0;9;0;11328;0;0;0;0
16.01.20;21:45:00;1;1693;12994;0;2;0;13398;0;0;0;0;3;0;8845;0;0;0;0;4;0;10696;0;0;0;0;5;0;29898;2;0;0;0;0;0;6;0;22593;2;0;0;0;0;0;7;0;21104;0;0;0;0;8;0;20790;0;0;0;0;9;0;11328;0;0;0;0
16.01.20;21:40:00;1;637;12829;0;2;0;13398;0;0;0;0;3;0;8845;0;0;0;0;4;0;10696;0;0;0;0;5;0;29898;2;0;0;0;0;0;6;0;22593;2;0;0;0;0;0;7;0;21104;0;0;0;0;8;0;20790;0;0;0;0;9;0;11328;0;0;0;0
16.01.20;21:35:00;1;766;12776;0;2;0;13398;0;0;0;0;3;0;8845;0;0;0;0;4;0;10696;0;0;0;0;5;0;29898;2;0;0;0;0;0;6;0;22593;2;0;0;0;0;0;7;0;21104;0;0;0;0;8;0;20790;0;0;0;0;9;0;11328;0;0;0;0
16.01.20;21:30:00;1;1986;12720;0;2;0;13398;0;0;0;0;3;0;8845;0;0;0;0;4;0;10696;0;0;0;0;5;0;29898;2;0;0;0;0;0;6;0;22593;2;0;0;0;0;0;7;0;21104;0;0;0;0;8;0;20790;0;0;0;0;9;0;11328;0;0;0;0
16.01.20;21:25:00;1;2398;12540;0;2;0;13398;0;0;0;0;3;0;8845;0;0;0;0;4;0;10696;0;0;0;0;5;0;29898;2;0;0;0;0;0;6;0;22593;2;0;0;0;0;0;7;0;21104;0;0;0;0;8;0;20790;0;0;0;0;9;0;11328;0;0;0;0
16.01.20;21:20:00;1;2777;12319;0;2;0;13398;0;0;0;0;3;0;8845;0;0;0;0;4;0;10696;0;0;0;0;5;0;29898;2;0;0;0;0;0;6;0;22593;2;0;0;0;0;0;7;0;21104;0;0;0;0;8;0;20790;0;0;0;0;9;0;11328;0;0;0;0
16.01.20;21:15:00;1;2946;12090;0;2;0;13398;0;0;0;0;3;0;8845;0;0;0;0;4;0;10696;0;0;0;0;5;0;29898;2;0;0;0;0;0;6;0;22593;2;0;0;0;0;0;7;0;21104;0;0;0;0;8;0;20790;0;0;0;0;9;0;11328;0;0;0;0
16.01.20;21:10:00;1;1105;11848;0;2;0;13398;0;0;0;0;3;0;8845;0;0;0;0;4;0;10696;0;0;0;0;5;0;29898;2;0;0;0;0;0;6;0;22593;2;0;0;0;0;0;7;0;21104;0;0;0;0;8;0;20790;0;0;0;0;9;0;11328;0;0;0;0
16.01.20;21:05:00;1;1843;11766;0;2;0;13398;0;0;0;0;3;0;8845;0;0;0;0;4;0;10696;0;0;0;0;5;0;29898;2;0;0;0;0;0;6;0;22593;2;0;0;0;0;0;7;0;21104;0;0;0;0;8;0;20790;0;0;0;0;9;0;11328;0;0;0;0
16.01.20;21:00:00;1;2519;11601;0;2;0;13398;0;0;0;0;3;0;8845;0;0;0;0;4;0;10696;0;0;0;0;5;0;29898;2;0;0;0;0;0;6;0;22593;2;0;0;0;0;0;7;0;21104;0;0;0;0;8;0;20790;0;0;0;0;9;0;11328;0;0;0;0
16.01.20;20:55:00;1;1988;11387;0;2;0;13398;0;0;0;0;3;0;8845;0;0;0;0;4;0;10696;0;0;0;0;5;0;29898;2;0;0;0;0;0;6;0;22593;2;0;0;0;0;0;7;0;21104;0;0;0;0;8;0;20790;0;0;0;0;9;0;11328;0;0;0;0
16.01.20;20:50:00;1;581;11234;0;2;0;13398;0;0;0;0;3;0;8845;0;0;0;0;4;0;10696;0;0;0;0;5;0;29898;2;0;0;0;0;0;6;0;22593;2;0;0;0;0;0;7;0;21104;0;0;0;0;8;0;20790;0;0;0;0;9;0;11328;0;0;0;0
16.01.20;20:45:00;1;593;11186;0;2;0;13398;0;0;0;0;3;0;8845;0;0;0;0;4;0;10696;0;0;0;0;5;0;29898;2;0;0;0;0;0;6;0;22593;2;0;0;0;0;0;7;0;21104;0;0;0;0;8;0;20790;0;0;0;0;9;0;11328;0;0;0;0
16.01.20;20:40:00;1;945;11137;0;2;0;13398;0;0;0;0;3;0;8845;0;0;0;0;4;0;10696;0;0;0;0;5;0;29898;2;0;0;0;0;0;6;0;22593;2;0;0;0;0;0;7;0;21104;0;0;0;0;8;0;20790;0;0;0;0;9;0;11328;0;0;0;0
16.01.20;20:35:00;1;606;11062;0;2;0;13398;0;0;0;0;3;0;8845;0;0;0;0;4;0;10696;0;0;0;0;5;0;29898;2;0;0;0;0;0;6;0;22593;2;0;0;0;0;0;7;0;21104;0;0;0;0;8;0;20790;0;0;0;0;9;0;11328;0;0;0;0
16.01.20;20:30:00;1;553;11012;0;2;0;13398;0;0;0;0;3;0;8845;0;0;0;0;4;0;10696;0;0;0;0;5;0;29898;2;0;0;0;0;0;6;0;22593;2;0;0;0;0;0;7;0;21104;0;0;0;0;8;0;20790;0;0;0;0;9;0;11328;0;0;0;0
16.01.20;20:25:00;1;550;10965;0;2;0;13398;0;0;0;0;3;0;8845;0;0;0;0;4;0;10696;0;0;0;0;5;0;29898;2;0;0;0;0;0;6;0;22593;2;0;0;0;0;0;7;0;21104;0;0;0;0;8;0;20790;0;0;0;0;9;0;11328;0;0;0;0
16.01.20;20:20:00;1;1429;10919;0;2;0;13398;0;0;0;0;3;0;8845;0;0;0;0;4;0;10696;0;0;0;0;5;0;29898;2;0;0;0;0;0;6;0;22593;2;0;0;0;0;0;7;0;21104;0;0;0;0;8;0;20790;0;0;0;0;9;0;11328;0;0;0;0
16.01.20;20:15:00;1;2153;10805;0;2;0;13398;0;0;0;0;3;0;8845;0;0;0;0;4;0;10696;0;0;0;0;5;0;29898;2;0;0;0;0;0;6;0;22593;2;0;0;0;0;0;7;0;21104;0;0;0;0;8;0;20790;0;0;0;0;9;0;11328;0;0;0;0
16.01.20;20:10:00;1;2267;10673;0;2;0;13398;0;0;0;0;3;0;8845;0;0;0;0;4;0;10696;0;0;0;0;5;0;29898;2;0;0;0;0;0;6;0;22593;2;0;0;0;0;0;7;0;21104;0;0;0;0;8;0;20790;0;0;0;0;9;0;11328;0;0;0;0
16.01.20;20:05:00;1;1664;10511;0;2;0;13398;0;0;0;0;3;0;8845;0;0;0;0;4;0;10696;0;0;0;0;5;0;29898;2;0;0;0;0;0;6;0;22593;2;0;0;0;0;0;7;0;21104;0;0;0;0;8;0;20790;0;0;0;0;9;0;11328;0;0;0;0
16.01.20;20:00:00;1;1940;10295;0;2;0;13398;0;0;0;0;3;0;8845;0;0;0;0;4;0;10696;0;0;0;0;5;0;29898;2;0;0;0;0;0;6;0;22593;2;0;0;0;0;0;7;0;21104;0;0;0;0;8;0;20790;0;0;0;0;9;0;11328;0;0;0;0
16.01.20;19:55:00;1;968;10192;0;2;0;13398;0;0;0;0;3;0;8845;0;0;0;0;4;0;10696;0;0;0;0;5;0;29898;2;0;0;0;0;0;6;0;22593;2;0;0;0;0;0;7;0;21104;0;0;0;0;8;0;20790;0;0;0;0;9;0;11328;0;0;0;0
16.01.20;19:50:00;1;621;10110;0;2;0;13398;0;0;0;0;3;0;8845;0;0;0;0;4;0;10696;0;0;0;0;5;0;29898;2;0;0;0;0;0;6;0;22593;2;0;0;0;0;0;7;0;21104;0;0;0;0;8;0;20790;0;0;0;0;9;0;11328;0;0;0;0
16.01.20;19:45:00;1;591;10075;0;2;0;13398;0;0;0;0;3;0;8845;0;0;0;0;4;0;10696;0;0;0;0;5;0;29898;2;0;0;0;0;0;6;0;22593;2;0;0;0;0;0;7;0;21104;0;0;0;0;8;0;20790;0;0;0;0;9;0;11328;0;0;0;0
16.01.20;19:40:00;1;246;10029;0;2;0;13398;0;0;0;0;3;0;8845;0;0;0;0;4;0;10696;0;0;0;0;5;0;29898;2;0;0;0;0;0;6;0;22593;2;0;0;0;0;0;7;0;21104;0;0;0;0;8;0;20790;0;0;0;0;9;0;11328;0;0;0;0
16.01.20;19:35:00;1;279;10009;0;2;0;13398;0;0;0;0;3;0;8845;0;0;0;0;4;0;10696;0;0;0;0;5;0;29898;2;0;0;0;0;0;6;0;22593;2;0;0;0;0;0;7;0;21104;0;0;0;0;8;0;20790;0;0;0;0;9;0;11328;0;0;0;0
16.01.20;19:30:00;1;303;9985;0;2;0;13398;0;0;0;0;3;0;8845;0;0;0;0;4;0;10696;0;0;0;0;5;0;29898;2;0;0;0;0;0;6;0;22593;2;0;0;0;0;0;7;0;21104;0;0;0;0;8;0;20790;0;0;0;0;9;0;11328;0;0;0;0
16.01.20;19:25:00;1;304;9960;0;2;0;13398;0;0;0;0;3;0;8845;0;0;0;0;4;0;10696;0;0;0;0;5;0;29898;2;0;0;0;0;0;6;0;22593;2;0;0;0;0;0;7;0;21104;0;0;0;0;8;0;20790;0;0;0;0;9;0;11328;0;0;0;0
16.01.20;19:20:00;1;304;9910;0;2;0;13398;0;0;0;0;3;0;8845;0;0;0;0;4;0;10696;0;0;0;0;5;0;29898;2;0;0;0;0;0;6;0;22593;2;0;0;0;0;0;7;0;21104;0;0;0;0;8;0;20790;0;0;0;0;9;0;11328;0;0;0;0
16.01.20;19:15:00;1;305;9884;0;2;0;13398;0;0;0;0;3;0;8845;0;0;0;0;4;0;10696;0;0;0;0;5;0;29898;2;0;0;0;0;0;6;0;22593;2;0;0;0;0;0;7;0;21104;0;0;0;0;8;0;20790;0;0;0;0;9;0;11328;0;0;0;0
16.01.20;19:10:00;1;321;9859;0;2;0;13398;0;0;0;0;3;0;8845;0;0;0;0;4;0;10696;0;0;0;0;5;0;29898;2;0;0;0;0;0;6;0;22593;2;0;0;0;0;0;7;0;21104;0;0;0;0;8;0;20790;0;0;0;0;9;0;11328;0;0;0;0
16.01.20;19:05:00;1;309;9808;0;2;0;13398;0;0;0;0;3;0;8845;0;0;0;0;4;0;10696;0;0;0;0;5;0;29898;2;0;0;0;0;0;6;0;22593;2;0;0;0;0;0;7;0;21104;0;0;0;0;8;0;20790;0;0;0;0;9;0;11328;0;0;0;0
16.01.20;19:00:00;1;286;9781;0;2;0;13398;0;0;0;0;3;0;8845;0;0;0;0;4;0;10696;0;0;0;0;5;0;29898;2;0;0;0;0;0;6;0;22593;2;0;0;0;0;0;7;0;21104;0;0;0;0;8;0;20790;0;0;0;0;9;0;11328;0;0;0;0
16.01.20;18:55:00;1;1130;9758;0;2;0;13398;0;0;0;0;3;0;8845;0;0;0;0;4;0;10696;0;0;0;0;5;0;29898;2;0;0;0;0;0;6;0;22593;2;0;0;0;0;0;7;0;21104;0;0;0;0;8;0;20790;0;0;0;0;9;0;11328;0;0;0;0
16.01.20;18:50:00;1;1409;9614;0;2;0;13398;0;0;0;0;3;0;8845;0;0;0;0;4;0;10696;0;0;0;0;5;0;29898;2;0;0;0;0;0;6;0;22593;2;0;0;0;0;0;7;0;21104;0;0;0;0;8;0;20790;0;0;0;0;9;0;11328;0;0;0;0
16.01.20;18:45:00;1;265;9471;0;2;0;13398;0;0;0;0;3;0;8845;0;0;0;0;4;0;10696;0;0;0;0;5;0;29898;2;0;0;0;0;0;6;0;22593;2;0;0;0;0;0;7;0;21104;0;0;0;0;8;0;20790;0;0;0;0;9;0;11328;0;0;0;0
16.01.20;18:40:00;1;245;9448;0;2;0;13398;0;0;0;0;3;0;8845;0;0;0;0;4;0;10696;0;0;0;0;5;0;29898;2;0;0;0;0;0;6;0;22593;2;0;0;0;0;0;7;0;21104;0;0;0;0;8;0;20790;0;0;0;0;9;0;11328;0;0;0;0
16.01.20;18:35:00;1;579;9428;0;2;0;13398;0;0;0;0;3;0;8845;0;0;0;0;4;0;10696;0;0;0;0;5;0;29898;2;0;0;0;0;0;6;0;22593;2;0;0;0;0;0;7;0;21104;0;0;0;0;8;0;20790;0;0;0;0;9;0;11328;0;0;0;0
16.01.20;18:30:00;1;243;9380;0;2;0;13398;0;0;0;0;3;0;8845;0;0;0;0;4;0;10696;0;0;0;0;5;0;29898;2;0;0;0;0;0;6;0;22593;2;0;0;0;0;0;7;0;21104;0;0;0;0;8;0;20790;0;0;0;0;9;0;11328;0;0;0;0
16.01.20;18:25:00;1;243;9360;0;2;0;13398;0;0;0;0;3;0;8845;0;0;0;0;4;0;10696;0;0;0;0;5;0;29898;2;0;0;0;0;0;6;0;22593;2;0;0;0;0;0;7;0;21104;0;0;0;0;8;0;20790;0;0;0;0;9;0;11328;0;0;0;0
16.01.20;18:20:00;1;242;9339;0;2;0;13398;0;0;0;0;3;0;8845;0;0;0;0;4;0;10696;0;0;0;0;5;0;29898;2;0;0;0;0;0;6;0;22593;2;0;0;0;0;0;7;0;21104;0;0;0;0;8;0;20790;0;0;0;0;9;0;11328;0;0;0;0
16.01.20;18:15:00;1;275;9319;0;2;0;13398;0;0;0;0;3;0;8845;0;0;0;0;4;0;10696;0;0;0;0;5;0;29898;2;0;0;0;0;0;6;0;22593;2;0;0;0;0;0;7;0;21104;0;0;0;0;8;0;20790;0;0;0;0;9;0;11328;0;0;0;0
16.01.20;18:10:00;1;242;9274;0;2;0;13398;0;0;0;0;3;0;8845;0;0;0;0;4;0;10696;0;0;0;0;5;0;29898;2;0;0;0;0;0;6;0;22593;2;0;0;0;0;0;7;0;21104;0;0;0;0;8;0;20790;0;0;0;0;9;0;11328;0;0;0;0
16.01.20;18:05:00;1;244;9254;0;2;0;13398;0;0;0;0;3;0;8845;0;0;0;0;4;0;10696;0;0;0;0;5;0;29898;2;0;0;0;0;0;6;0;22593;2;0;0;0;0;0;7;0;21104;0;0;0;0;8;0;20790;0;0;0;0;9;0;11328;0;0;0;0
16.01.20;18:00:00;1;263;9233;0;2;0;13398;0;0;0;0;3;0;8845;0;0;0;0;4;0;10696;0;0;0;0;5;0;29898;2;0;0;0;0;0;6;0;22593;2;0;0;0;0;0;7;0;21104;0;0;0;0;8;0;20790;0;0;0;0;9;0;11328;0;0;0;0
16.01.20;17:55:00;1;249;9185;0;2;0;13398;0;0;0;0;3;0;8845;0;0;0;0;4;0;10696;0;0;0;0;5;0;29898;2;0;0;0;0;0;6;0;22593;2;0;0;0;0;0;7;0;21104;0;0;0;0;8;0;20790;0;0;0;0;9;0;11328;0;0;0;0
16.01.20;17:50:00;1;284;9164;0;2;0;13398;0;0;0;0;3;0;8845;0;0;0;0;4;0;10696;0;0;0;0;5;0;29898;2;0;0;0;0;0;6;0;22593;2;0;0;0;0;0;7;0;21104;0;0;0;0;8;0;20790;0;0;0;0;9;0;11328;0;0;0;0
16.01.20;17:45:00;1;285;9140;0;2;0;13398;0;0;0;0;3;0;8845;0;0;0;0;4;0;10696;0;0;0;0;5;0;29898;2;0;0;0;0;0;6;0;22593;2;0;0;0;0;0;7;0;21104;0;0;0;0;8;0;20790;0;0;0;0;9;0;11328;0;0;0;0
16.01.20;17:40:00;1;878;9114;0;2;0;13398;0;0;0;0;3;0;8845;0;0;0;0;4;0;10696;0;0;0;0;5;0;29898;2;0;0;0;0;0;6;0;22593;2;0;0;0;0;0;7;0;21104;0;0;0;0;8;0;20790;0;0;0;0;9;0;11328;0;0;0;0
16.01.20;17:35:00;1;270;9066;0;2;0;13398;0;0;0;0;3;0;8845;0;0;0;0;4;0;10696;0;0;0;0;5;0;29898;2;0;0;0;0;0;6;0;22593;2;0;0;0;0;0;7;0;21104;0;0;0;0;8;0;20790;0;0;0;0;9;0;11328;0;0;0;0
16.01.20;17:30:00;1;245;9044;0;2;0;13398;0;0;0;0;3;0;8845;0;0;0;0;4;0;10696;0;0;0;0;5;0;29898;2;0;0;0;0;0;6;0;22593;2;0;0;0;0;0;7;0;21104;0;0;0;0;8;0;20790;0;0;0;0;9;0;11328;0;0;0;0
16.01.20;17:25:00;1;301;9023;0;2;0;13398;0;0;0;0;3;0;8845;0;0;0;0;4;0;10696;0;0;0;0;5;0;29898;2;0;0;0;0;0;6;0;22593;2;0;0;0;0;0;7;0;21104;0;0;0;0;8;0;20790;0;0;0;0;9;0;11328;0;0;0;0
16.01.20;17:20:00;1;302;8969;0;2;0;13398;0;0;0;0;3;0;8845;0;0;0;0;4;0;10696;0;0;0;0;5;0;29898;2;0;0;0;0;0;6;0;22593;2;0;0;0;0;0;7;0;21104;0;0;0;0;8;0;20790;0;0;0;0;9;0;11328;0;0;0;0
16.01.20;17:15:00;1;302;8944;0;2;0;13398;0;0;0;0;3;0;8845;0;0;0;0;4;0;10696;0;0;0;0;5;0;29898;2;0;0;0;0;0;6;0;22593;2;0;0;0;0;0;7;0;21104;0;0;0;0;8;0;20790;0;0;0;0;9;0;11328;0;0;0;0
16.01.20;17:10:00;1;305;8919;0;2;0;13398;0;0;111;4;3;0;8845;0;0;236;12;4;0;10696;0;0;0;0;5;0;29898;2;0;0;0;0;0;6;0;22593;2;0;0;0;0;0;7;0;21104;0;0;0;0;8;0;20790;0;0;0;0;9;0;11328;0;0;0;0
16.01.20;17:05:00;1;713;8884;0;2;0;13398;6;0;298;11;3;0;8845;6;0;339;14;4;0;10696;0;0;44;8;5;0;29898;2;0;0;0;0;0;6;0;22593;2;0;0;0;0;0;7;0;21104;0;0;0;0;8;0;20790;0;0;0;0;9;0;11328;0;0;0;0
16.01.20;17:00:00;1;304;8841;0;2;0;13398;6;0;355;11;3;0;8845;6;2;425;14;4;0;10696;1;0;121;13;5;0;29898;2;0;4;230;247;18;6;0;22593;1;6;2;143;305;16;7;0;21104;0;0;169;10;8;0;20790;0;0;166;9;9;0;11328;0;0;169;7
16.01.20;16:55:00;1;273;8815;0;2;0;13398;6;0;391;12;3;1;8845;6;3;471;14;4;0;10696;1;0;175;13;5;0;29898;23;0;0;411;562;23;6;0;22593;23;7;2;181;544;21;7;0;21104;6;0;380;17;8;0;20790;6;0;380;16;9;0;11328;6;0;377;12
16.01.20;16:50:00;1;712;8793;0;2;0;13398;6;0;406;12;3;4;8845;4;8;461;15;4;0;10696;1;0;221;14;5;7;29898;4;0;0;414;648;23;6;0;22593;23;8;2;182;573;22;7;0;21104;6;2;335;13;8;0;20790;4;2;411;16;9;0;11328;6;0;449;12
16.01.20;16:45:00;1;280;8747;0;2;0;13398;6;0;412;12;3;2;8844;3;5;498;15;4;0;10696;3;0;208;14;5;10;29898;4;0;1;418;661;24;6;0;22593;23;11;3;182;580;22;7;1;21104;6;2;436;17;8;0;20790;3;4;416;17;9;1;11328;6;2;467;12
16.01.20;16:40:00;1;282;8723;0;2;4;13398;6;10;407;13;3;0;8844;6;6;509;15;4;0;10696;3;0;206;15;5;72;29897;4;5;11;379;601;25;6;20;22593;1;6;16;554;533;23;7;2;21104;6;5;451;18;8;2;20790;6;5;356;14;9;0;11328;6;0;511;13
16.01.20;16:35:00;1;274;8699;0;2;27;13397;6;44;389;13;3;3;8844;6;9;518;15;4;6;10696;3;6;199;15;5;103;29890;4;26;27;379;601;25;6;66;22590;4;28;38;478;454;24;7;2;21104;6;8;469;18;8;6;20790;6;17;444;18;9;1;11328;3;3;513;13
16.01.20;16:30:00;1;292;8649;0;2;65;13395;4;97;373;14;3;4;8844;6;11;538;16;4;25;10695;3;26;198;15;5;140;29881;4;47;44;379;601;25;6;92;22585;4;37;51;478;454;24;7;36;21104;6;65;413;19;8;30;20790;6;47;410;18;9;3;11327;6;7;537;13
16.01.20;16:25:00;1;224;8627;0;2;87;13390;4;120;368;14;3;9;8843;6;16;539;16;4;29;10693;3;29;198;15;5;169;29870;4;60;59;379;601;25;6;114;22577;4;45;58;478;453;24;7;47;21101;4;96;460;19;8;62;20787;4;90;396;18;9;5;11327;6;10;542;14
16.01.20;16:20:00;1;224;8609;0;2;89;13383;4;122;363;15;3;16;8843;4;26;524;16;4;44;10691;3;46;197;16;5;181;29856;4;72;64;379;601;26;6;124;22567;4;48;61;478;454;24;7;60;21097;4;103;441;19;8;64;20782;4;95;387;19;9;9;11327;6;16;522;14
16.01.20;16:15:00;1;698;8583;0;2;107;13375;4;141;371;15;3;56;8841;4;93;453;17;4;55;10687;3;57;197;16;5;213;29840;4;92;82;379;601;26;6;144;22557;4;60;72;479;453;24;7;96;21092;4;125;408;20;8;89;20777;4;122;409;19;9;8;11326;6;13;551;14
16.01.20;16:10:00;1;225;8544;0;2;123;13366;4;158;381;15;3;67;8837;4;105;447;17;4;68;10682;3;71;198;16;5;248;29822;4;103;95;379;601;26;6;165;22545;4;81;90;478;454;24;7;123;21084;4;147;385;20;8;113;20770;4;148;412;20;9;8;11325;6;12;560;15
16.01.20;16:05:00;1;226;8525;0;2;147;13356;4;183;374;16;3;83;8831;4;121;463;18;4;84;10677;3;87;206;16;5;291;29801;4;128;113;379;601;26;6;196;22531;4;101;112;478;454;25;7;143;21074;4;186;416;20;8;146;20760;4;181;437;20;9;66;11325;4;95;452;16
16.01.20;16:00:00;1;227;8506;0;2;203;13344;4;242;384;16;3;110;8824;4;151;520;18;4;123;10670;5;128;226;17;5;367;29777;4;172;149;385;601;26;6;243;22514;4;106;117;477;453;25;7;219;21062;4;258;457;21;8;197;20748;4;237;444;20;9;90;11319;4;117;482;16
16.01.20;15:55:00;1;226;8462;0;2;249;13327;4;288;386;17;3;140;8815;4;181;515;18;4;148;10659;5;154;231;17;5;433;29745;4;201;181;386;601;26;6;287;22493;4;140;141;478;454;25;7;287;21044;4;329;469;21;8;259;20732;4;295;470;21;9;109;11312;4;141;507;17
16.01.20;15:50:00;1;226;8443;0;2;234;13306;4;276;384;17;3;141;8803;4;180;495;19;4;156;10647;5;163;227;17;5;442;29709;4;204;182;396;605;27;6;308;22469;4;152;176;481;513;25;7;273;21020;4;316;454;22;8;262;20710;4;304;462;21;9;124;11303;4;158;513;17
16.01.20;15:45:00;1;233;8424;0;2;278;13287;4;318;391;18;3;169;8792;4;207;488;19;4;196;10634;5;203;231;17;5;517;29672;4;256;212;400;611;27;6;390;22443;4;179;195;566;552;25;7;326;20997;4;362;452;22;8;307;20688;4;348;461;22;9;151;11292;4;183;506;18
16.01.20;15:40:00;1;267;8379;0;2;344;13263;4;389;394;19;3;207;8777;4;251;496;19;4;250;10618;5;261;231;18;5;636;29628;4;308;263;403;628;27;6;475;22410;4;224;238;573;553;25;7;403;20970;4;443;449;23;8;391;20662;4;434;459;22;9;188;11280;4;222;510;18
16.01.20;15:35:00;1;269;8357;0;2;461;13235;4;510;402;20;3;269;8760;4;316;523;20;4;323;10597;5;336;239;18;5;819;29574;4;400;341;408;642;27;6;610;22369;4;307;323;565;558;25;7;585;20936;4;638;473;23;8;557;20630;4;609;469;23;9;232;11264;4;272;531;19
16.01.20;15:30:00;1;271;8335;0;2;545;13197;4;597;397;21;3;293;8738;4;335;420;20;4;375;10570;5;390;241;18;5;937;29506;4;463;392;417;658;28;6;708;22318;4;365;367;579;555;26;7;665;20888;4;716;471;24;8;644;20584;4;687;477;24;9;264;11245;4;303;482;19
16.01.20;15:25:00;1;720;8302;0;2;694;13153;4;749;390;22;3;376;8714;4;424;425;21;4;438;10540;5;456;242;19;5;1146;29427;4;582;483;416;689;28;6;867;22260;4;456;462;580;563;26;7;879;20835;4;941;473;25;8;685;20532;4;729;380;19;9;333;11223;4;374;442;20
16.01.20;15:20:00;1;276;8266;0;2;902;13094;4;964;399;23;3;495;8682;4;543;427;22;4;490;10503;5;510;248;19;5;1458;29328;4;750;628;428;682;28;6;1129;22184;4;576;575;590;561;26;7;1315;20761;4;1395;480;25;8;1292;20461;4;1366;481;25;9;529;11195;4;575;446;21
16.01.20;15:15:00;1;285;8243;0;2;1129;13019;4;1205;409;24;3;608;8641;4;664;452;22;4;518;10462;5;539;250;19;5;1675;29208;4;865;719;423;684;29;6;1241;22093;4;640;628;594;564;26;7;1388;20653;4;1477;482;26;8;877;20337;0;931;293;15;9;596;11151;4;645;461;22
16.01.20;15:10:00;1;403;8219;0;2;1259;12924;4;1338;405;24;3;728;8590;4;790;475;23;4;562;10418;5;585;255;20;5;1912;29058;4;1003;824;420;680;29;6;1462;21981;4;777;767;598;569;26;7;1758;20536;4;1855;476;26;8;1372;20218;0;1442;404;21;9;815;11101;4;878;504;23
16.01.20;15:05:00;1;292;8170;0;2;1270;12819;4;1348;400;25;3;759;8529;4;826;504;23;4;557;10372;5;580;249;20;5;1953;28900;4;1028;844;427;683;29;6;1496;21860;4;757;760;588;572;27;7;1798;20387;4;1896;479;27;8;1771;20105;4;1855;472;26;9;891;11032;4;959;523;24
16.01.20;15:00:00;1;292;8145;0;2;1433;12713;4;1519;403;27;3;880;8466;4;951;512;24;4;584;10325;5;608;247;20;5;2155;28741;4;1131;928;418;685;30;6;1608;21738;4;818;791;588;564;27;7;1869;20237;4;1968;470;27;8;1823;19958;4;1917;473;27;9;652;10958;4;699;343;16
16.01.20;14:55:00;1;446;8121;0;2;2369;12596;4;2496;403;28;3;1513;8394;4;1611;515;25;4;768;10277;5;800;248;20;5;3588;28555;4;1940;1579;426;687;30;6;2701;21599;4;1377;1336;595;573;27;7;3235;20084;4;3398;478;28;8;3160;19808;4;3318;474;27;9;1667;10885;4;1771;511;26
16.01.20;14:50:00;1;268;8072;0;2;2555;12400;4;2685;399;29;3;1639;8269;4;1740;513;25;4;811;10213;5;845;242;21;5;3967;28250;4;2163;1747;427;696;30;6;3017;21368;4;1561;1526;597;574;27;7;3600;19817;4;3780;476;28;8;3530;19547;4;3704;472;28;9;1901;10746;4;2016;522;26
16.01.20;14:45:00;1;230;8050;0;2;2618;12189;4;2760;411;29;3;1681;8133;4;1785;518;25;4;843;10146;5;878;248;21;5;4158;27919;4;2272;1841;431;683;30;6;3149;21118;4;1619;1594;597;574;27;7;3694;19523;4;3883;476;28;8;3613;19259;4;3790;477;28;9;1966;10593;4;2082;526;27
16.01.20;14:40:00;1;305;8031;0;2;2355;11971;4;2485;404;29;3;1519;7993;4;1614;510;25;4;803;10076;5;837;243;21;5;3809;27577;4;2075;1670;422;678;30;6;2857;20858;4;1463;1433;593;575;27;7;3385;19210;4;3548;473;29;8;3358;18954;4;3523;468;28;9;1852;10426;4;1961;517;27
16.01.20;14:35:00;1;271;7984;0;2;2663;11774;4;2807;402;29;3;1712;7866;4;1816;514;26;4;868;10008;5;904;236;21;5;4351;27258;4;2367;1927;426;682;30;6;3301;20616;4;1705;1673;594;569;27;7;3778;18927;4;3971;476;29;8;3706;18671;4;3883;461;28;9;2025;10269;4;2143;520;27
16.01.20;14:30:00;1;272;7961;0;2;2691;11553;4;2835;399;29;3;1743;7724;4;1849;510;26;4;893;9936;5;930;223;22;5;4504;26892;4;2462;1992;423;681;30;6;3418;20338;4;1768;1729;589;569;27;7;3866;18614;4;4054;466;29;8;3803;18364;4;3980;466;28;9;2079;10101;4;2200;515;27
16.01.20;14:25:00;1;1234;7938;0;2;2696;11328;4;2840;400;29;3;1741;7578;4;1848;510;26;4;916;9862;5;954;227;22;5;4571;26516;4;2499;2026;423;682;30;6;3467;20053;4;1790;1741;587;564;27;7;3870;18290;4;4061;468;29;8;3811;18047;4;3991;464;29;9;2090;9928;4;2208;513;27
16.01.20;14:20:00;1;311;7889;0;2;2726;11103;4;2873;398;29;3;1760;7433;4;1869;507;26;4;948;9785;5;988;218;22;5;4699;26134;4;2568;2076;417;679;30;6;3552;19763;4;1819;1776;586;563;27;7;3932;17968;4;4128;472;29;8;3880;17729;4;4063;467;29;9;1415;9753;4;1496;343;18
16.01.20;14:15:00;1;232;7868;0;2;2776;10877;4;2917;393;29;3;1794;7287;4;1906;515;26;4;990;9706;5;1031;229;23;5;4864;25742;4;2650;2154;422;680;31;6;3676;19466;4;1906;1858;586;562;27;7;4040;17642;4;4236;465;29;8;3962;17407;4;4153;470;29;9;2168;9578;4;2295;512;28